User: anonymous   Login
Location: Unspecified
(0.0000°N, 0.0000°E)
Time: 18:52:07
(UTC+00:00)
Language:

OGO 1 - Orbit

View from above orbital plane
View from above orbital plane
View from above satellite
View from above satellite

Ground track
Ground track

The orbit data is extracted from the following two-line orbital elements,

1   879U 64054A   19011.05558660 -.00000041  00000-0  00000+0 0  9995
2   879  78.3968 325.6148 7875370 201.5119 359.1402  0.37756280 19598
Epoch (UTC): 11 January 2019 01:20:02
Eccentricity: 0.7875370
inclination: 78.3968°
perigee height: 10802 km
apogee height: 138163 km
right ascension of ascending node: 325.6148°
argument of perigee: 201.5119°
revolutions per day: 0.37756280
mean anomaly at epoch: 359.1402°
orbit number at epoch: 1959

The dashed part of the orbit path shows where the satellite is in the earth's shadow,  

DLR